| time (UTC) | temp C | wind direction | speed KPH | gust KPH | rain 1hr cm | rain 24hr cm | rain mn cm | humidity % | barometer mb |
| 20260509064619 | 4 | 111 | 0.0 | 0.0 | 0.00 | 0.00 | 0.00 | 79 | 1006.2 |
| 20260509063619 | 5 | 111 | 0.0 | 1.6 | 0.00 | 0.00 | 0.00 | 78 | 1006.3 |
| 20260509062619 | 6 | 111 | 0.0 | 1.6 | 0.00 | 0.00 | 0.00 | 78 | 1006.2 |
| 20260509061619 | 6 | 145 | 1.6 | 3.2 | 0.00 | 0.00 | 0.00 | 76 | 1006.3 |
| 20260509060614 | 5 | 120 | 0.0 | 3.2 | 0.00 | 0.00 | 0.00 | 77 | 1006.3 |
| 20260509055611 | 6 | 114 | 0.0 | 0.0 | 0.00 | 0.00 | 0.00 | 76 | 1006.5 |
| 20260509054610 | 6 | 126 | 0.0 | 3.2 | 0.00 | 0.00 | 0.00 | 74 | 1006.9 |
| 20260509053606 | 5 | 106 | 0.0 | 0.0 | 0.00 | 0.00 | 0.00 | 75 | 1006.8 |
| 20260509052601 | 6 | 120 | 0.0 | 0.0 | 0.00 | 0.00 | 0.00 | 72 | 1006.8 |
| 20260509051556 | 6 | 154 | 0.0 | 1.6 | 0.00 | 0.00 | 0.00 | 76 | 1006.7 |
| 20260509050555 | 6 | 131 | 0.0 | 1.6 | 0.00 | 0.00 | 0.00 | 78 | 1006.8 |
| 20260509045550 | 6 | 144 | 0.0 | 0.0 | 0.00 | 0.00 | 0.00 | 78 | 1006.8 |
| 20260509044549 | 6 | 144 | 0.0 | 0.0 | 0.00 | 0.00 | 0.00 | 76 | 1006.7 |
| 20260509043549 | 6 | 160 | 0.0 | 1.6 | 0.00 | 0.00 | 0.00 | 78 | 1007.0 |
| 20260509042547 | 6 | 114 | 0.0 | 1.6 | 0.00 | 0.00 | 0.00 | 75 | 1007.2 |
| 20260509041546 | 7 | 120 | 0.0 | 0.0 | 0.00 | 0.00 | 0.00 | 72 | 1007.1 |
| 20260509040542 | 7 | 120 | 0.0 | 0.0 | 0.00 | 0.00 | 0.00 | 72 | 1007.3 |
| 20260509035541 | 6 | 120 | 0.0 | 0.0 | 0.00 | 0.00 | 0.00 | 73 | 1007.3 |
| 20260509034536 | 7 | 120 | 0.0 | 0.0 | 0.00 | 0.00 | 0.00 | 70 | 1007.3 |
| 20260509033535 | 8 | 114 | 0.0 | 0.0 | 0.00 | 0.00 | 0.00 | 68 | 1007.5 |
| 20260509032535 | 8 | 114 | 0.0 | 1.6 | 0.00 | 0.00 | 0.00 | 68 | 1007.5 |
| 20260509031535 | 8 | 114 | 0.0 | 0.0 | 0.00 | 0.00 | 0.00 | 66 | 1007.7 |
| 20260509030531 | 8 | 114 | 0.0 | 1.6 | 0.00 | 0.00 | 0.00 | 66 | 1008.0 |
| 20260509025529 | 9 | 120 | 0.0 | 1.6 | 0.00 | 0.00 | 0.00 | 63 | 1007.9 |
| 20260509024526 | 8 | 106 | 0.0 | 0.0 | 0.00 | 0.00 | 0.00 | 62 | 1007.9 |
| 20260509023526 | 10 | 157 | 0.0 | 0.0 | 0.00 | 0.00 | 0.00 | 59 | 1007.9 |
| 20260509022525 | 10 | 157 | 0.0 | 3.2 | 0.00 | 0.00 | 0.00 | 54 | 1008.0 |
| 20260509021520 | 10 | 195 | 0.0 | 0.0 | 0.00 | 0.00 | 0.00 | 54 | 1007.9 |
| 20260509020515 | 10 | 195 | 0.0 | 0.0 | 0.00 | 0.00 | 0.00 | 53 | 1008.0 |
| 20260509015511 | 10 | 195 | 0.0 | 0.0 | 0.00 | 0.00 | 0.00 | 51 | 1008.0 |
| 20260509014510 | 11 | 195 | 0.0 | 0.0 | 0.00 | 0.00 | 0.00 | 49 | 1007.7 |
| 20260509013509 | 11 | 195 | 0.0 | 0.0 | 0.00 | 0.00 | 0.00 | 47 | 1007.8 |
| 20260509012508 | 12 | 195 | 0.0 | 0.0 | 0.00 | 0.00 | 0.00 | 46 | 1007.8 |
| 20260509011502 | 12 | 180 | 0.0 | 0.0 | 0.00 | 0.00 | 0.00 | 46 | 1007.7 |
| 20260509010457 | 12 | 228 | 0.0 | 3.2 | 0.00 | 0.00 | 0.00 | 44 | 1007.6 |
| 20260509005452 | 13 | 225 | 3.2 | 3.2 | 0.00 | 0.00 | 0.00 | 43 | 1007.6 |
| 20260509004448 | 14 | 243 | 0.0 | 4.8 | 0.00 | 0.00 | 0.00 | 42 | 1007.5 |
| 20260509003444 | 15 | 270 | 0.0 | 4.8 | 0.00 | 0.00 | 0.00 | 41 | 1007.4 |
| 20260509002444 | 15 | 246 | 0.0 | 6.4 | 0.00 | 0.00 | 0.00 | 39 | 1007.3 |
| 20260509001443 | 16 | 240 | 6.4 | 8.0 | 0.00 | 0.00 | 0.00 | 37 | 1007.4 |
| 20260509000440 | 16 | 312 | 3.2 | 12.9 | 0.00 | 0.00 | 0.00 | 37 | 1007.3 |
| 20260508235438 | 17 | 270 | 3.2 | 9.7 | 0.00 | 0.00 | 0.00 | 37 | 1007.3 |
| 20260508234437 | 17 | 74 | 0.0 | 4.8 | 0.00 | 0.00 | 0.00 | 36 | 1007.3 |
| 20260508233434 | 17 | 251 | 4.8 | 17.7 | 0.00 | 0.00 | 0.00 | 38 | 1007.4 |
| 20260508232433 | 17 | 253 | 4.8 | 12.9 | 0.00 | 0.00 | 0.00 | 37 | 1007.4 |
| 20260508231433 | 17 | 232 | 8.0 | 11.3 | 0.00 | 0.00 | 0.00 | 36 | 1007.4 |
| 20260508230432 | 16 | 278 | 4.8 | 9.7 | 0.00 | 0.00 | 0.00 | 39 | 1007.2 |
| 20260508225432 | 16 | 244 | 0.0 | 6.4 | 0.00 | 0.00 | 0.00 | 39 | 1007.5 |
| 20260508224427 | 17 | 262 | 8.0 | 11.3 | 0.00 | 0.00 | 0.00 | 37 | 1007.2 |
| 20260508223422 | 17 | 270 | 8.0 | 12.9 | 0.00 | 0.00 | 0.00 | 35 | 1007.7 |
| 20260508222422 | 18 | 248 | 3.2 | 8.0 | 0.00 | 0.00 | 0.00 | 34 | 1007.7 |
| 20260508221420 | 17 | 114 | 1.6 | 11.3 | 0.00 | 0.00 | 0.00 | 37 | 1007.8 |
| 20260508220419 | 17 | 219 | 4.8 | 12.9 | 0.00 | 0.00 | 0.00 | 36 | 1007.6 |
| 20260508215418 | 18 | 183 | 4.8 | 8.0 | 0.00 | 0.00 | 0.00 | 36 | 1007.7 |
| 20260508214418 | 18 | 241 | 8.0 | 12.9 | 0.00 | 0.00 | 0.00 | 36 | 1007.8 |
| 20260508213418 | 18 | 147 | 8.0 | 14.5 | 0.00 | 0.00 | 0.00 | 37 | 1007.9 |
| 20260508212416 | 18 | 225 | 0.0 | 20.9 | 0.00 | 0.00 | 0.00 | 37 | 1007.8 |
| 20260508211413 | 17 | 285 | 3.2 | 14.5 | 0.00 | 0.00 | 0.00 | 38 | 1008.0 |
| 20260508210413 | 17 | 130 | 6.4 | 16.1 | 0.00 | 0.00 | 0.00 | 35 | 1008.0 |
| 20260508205413 | 18 | 141 | 0.0 | 8.0 | 0.00 | 0.00 | 0.00 | 37 | 1008.2 |
| 20260508204412 | 17 | 256 | 4.8 | 8.0 | 0.00 | 0.00 | 0.00 | 37 | 1008.1 |
| 20260508203410 | 17 | 260 | 6.4 | 19.3 | 0.00 | 0.00 | 0.00 | 36 | 1008.4 |
| 20260508202409 | 17 | 310 | 11.3 | 14.5 | 0.00 | 0.00 | 0.00 | 40 | 1008.4 |
| 20260508201408 | 17 | 90 | 1.6 | 9.7 | 0.00 | 0.00 | 0.00 | 34 | 1008.7 |
| 20260508200408 | 18 | 277 | 4.8 | 8.0 | 0.00 | 0.00 | 0.00 | 38 | 1008.7 |
| 20260508195406 | 17 | 225 | 4.8 | 12.9 | 0.00 | 0.00 | 0.00 | 41 | 1008.8 |
| 20260508194406 | 17 | 260 | 8.0 | 14.5 | 0.00 | 0.00 | 0.00 | 36 | 1009.2 |
| 20260508193405 | 17 | 209 | 6.4 | 6.4 | 0.00 | 0.00 | 0.00 | 42 | 1009.2 |
| 20260508192404 | 17 | 237 | 4.8 | 14.5 | 0.00 | 0.00 | 0.00 | 42 | 1009.3 |
| 20260508191359 | 17 | 214 | 3.2 | 11.3 | 0.00 | 0.00 | 0.00 | 36 | 1009.5 |
| 20260508190358 | 17 | 275 | 4.8 | 16.1 | 0.00 | 0.00 | 0.00 | 40 | 1009.7 |
| 20260508185358 | 16 | 141 | 3.2 | 11.3 | 0.00 | 0.00 | 0.00 | 41 | 1009.7 |
| 20260508184353 | 16 | 173 | 3.2 | 14.5 | 0.00 | 0.00 | 0.00 | 43 | 1010.0 |
| 20260508183351 | 16 | 195 | 8.0 | 11.3 | 0.00 | 0.00 | 0.00 | 38 | 1010.1 |
| 20260508182350 | 17 | 231 | 3.2 | 8.0 | 0.00 | 0.00 | 0.00 | 38 | 1010.1 |
| 20260508181349 | 17 | 209 | 6.4 | 17.7 | 0.00 | 0.00 | 0.00 | 41 | 1010.2 |
| 20260508180348 | 16 | 175 | 3.2 | 16.1 | 0.00 | 0.00 | 0.00 | 47 | 1010.4 |
| 20260508175347 | 15 | 279 | 8.0 | 14.5 | 0.00 | 0.00 | 0.00 | 41 | 1010.9 |
| 20260508174342 | 15 | 213 | 3.2 | 16.1 | 0.00 | 0.00 | 0.00 | 42 | 1011.0 |
| 20260508173342 | 16 | 156 | 4.8 | 12.9 | 0.00 | 0.00 | 0.00 | 40 | 1011.2 |
| 20260508172341 | 15 | 0 | 4.8 | 17.7 | 0.00 | 0.00 | 0.00 | 40 | 1011.2 |
| 20260508171339 | 15 | 235 | 9.7 | 17.7 | 0.00 | 0.00 | 0.00 | 42 | 1011.6 |
| 20260508170334 | 15 | 270 | 3.2 | 12.9 | 0.00 | 0.00 | 0.00 | 41 | 1011.7 |
| 20260508165333 | 15 | 206 | 4.8 | 11.3 | 0.00 | 0.00 | 0.00 | 42 | 1011.8 |
| 20260508164331 | 15 | 83 | 4.8 | 16.1 | 0.00 | 0.00 | 0.00 | 44 | 1012.0 |
| 20260508163327 | 15 | 239 | 8.0 | 17.7 | 0.00 | 0.00 | 0.00 | 45 | 1011.9 |
| 20260508162325 | 15 | 225 | 4.8 | 12.9 | 0.00 | 0.00 | 0.00 | 50 | 1012.1 |
| 20260508161325 | 15 | 66 | 0.0 | 6.4 | 0.00 | 0.00 | 0.00 | 42 | 1012.1 |
| 20260508160321 | 15 | 255 | 8.0 | 11.3 | 0.00 | 0.00 | 0.00 | 46 | 1012.2 |
| 20260508155321 | 14 | 270 | 4.8 | 16.1 | 0.00 | 0.00 | 0.00 | 49 | 1012.1 |
| 20260508154315 | 15 | 254 | 0.0 | 11.3 | 0.00 | 0.00 | 0.00 | 48 | 1012.2 |
| 20260508153314 | 13 | 239 | 8.0 | 14.5 | 0.00 | 0.00 | 0.00 | 50 | 1012.5 |
| 20260508152312 | 13 | 180 | 1.6 | 14.5 | 0.00 | 0.00 | 0.00 | 48 | 1012.4 |
| 20260508151311 | 13 | 254 | 8.0 | 11.3 | 0.00 | 0.00 | 0.00 | 49 | 1012.3 |
| 20260508150310 | 13 | 253 | 9.7 | 12.9 | 0.00 | 0.00 | 0.00 | 52 | 1012.7 |
| 20260508145308 | 13 | 244 | 4.8 | 16.1 | 0.00 | 0.00 | 0.00 | 53 | 1012.6 |
| 20260508144303 | 12 | 239 | 6.4 | 14.5 | 0.00 | 0.00 | 0.00 | 54 | 1012.7 |
| 20260508143303 | 13 | 229 | 6.4 | 8.0 | 0.00 | 0.00 | 0.00 | 59 | 1012.9 |
| 20260508142306 | 13 | 206 | 3.2 | 4.8 | 0.00 | 0.00 | 0.00 | 57 | 1012.9 |
| 20260508141302 | 13 | 270 | 4.8 | 6.4 | 0.00 | 0.00 | 0.00 | 58 | 1012.8 |
| 20260508140302 | 12 | 245 | 8.0 | 14.5 | 0.00 | 0.00 | 0.00 | 61 | 1013.0 |
| 20260508135300 | 12 | 160 | 1.6 | 6.4 | 0.00 | 0.00 | 0.00 | 61 | 1013.1 |
| 20260508134259 | 12 | 195 | 1.6 | 6.4 | 0.00 | 0.00 | 0.00 | 62 | 1013.1 |
| 20260508133259 | 12 | 53 | 0.0 | 8.0 | 0.00 | 0.00 | 0.00 | 64 | 1013.0 |
| 20260508132259 | 11 | 254 | 0.0 | 8.0 | 0.00 | 0.00 | 0.00 | 66 | 1013.0 |
| 20260508131257 | 11 | 172 | 3.2 | 4.8 | 0.00 | 0.00 | 0.00 | 66 | 1013.1 |
| 20260508130258 | 10 | 187 | 0.0 | 4.8 | 0.00 | 0.00 | 0.00 | 73 | 1013.4 |
| 20260508125255 | 9 | 150 | 0.0 | 6.4 | 0.00 | 0.00 | 0.00 | 76 | 1013.5 |
| 20260508124250 | 8 | 170 | 0.0 | 6.4 | 0.00 | 0.00 | 0.00 | 77 | 1013.3 |
| 20260508123246 | 8 | 169 | 3.2 | 4.8 | 0.00 | 0.00 | 0.00 | 82 | 1013.3 |
| 20260508122245 | 7 | 133 | 4.8 | 6.4 | 0.00 | 0.00 | 0.00 | 85 | 1013.1 |
| 20260508121241 | 6 | 120 | 3.2 | 8.0 | 0.00 | 0.00 | 0.00 | 89 | 1013.1 |
| 20260508120236 | 6 | 174 | 0.0 | 4.8 | 0.00 | 0.00 | 0.00 | 96 | 1013.1 |
| 20260508115231 | 5 | 123 | 4.8 | 4.8 | 0.00 | 0.00 | 0.00 | 98 | 1012.9 |
| 20260508114229 | 5 | 169 | 1.6 | 3.2 | 0.00 | 0.00 | 0.00 | 99 | 1012.9 |
| 20260508113225 | 3 | 138 | 0.0 | 4.8 | 0.00 | 0.00 | 0.00 | 99 | 1012.7 |
| 20260508112223 | 3 | 160 | 1.6 | 3.2 | 0.00 | 0.00 | 0.00 | 99 | 1012.6 |
| 20260508111218 | 2 | 131 | 0.0 | 4.8 | 0.00 | 0.00 | 0.00 | 99 | 1012.5 |
| 20260508110218 | 1 | 120 | 0.0 | 1.6 | 0.00 | 0.00 | 0.00 | 99 | 1012.6 |
| 20260508105215 | 0 | 97 | 1.6 | 1.6 | 0.00 | 0.00 | 0.00 | 99 | 1012.9 |
| 20260508104214 | -1 | 82 | 0.0 | 1.6 | 0.00 | 0.00 | 0.00 | 99 | 1012.9 |
| 20260508103209 | 0 | 54 | 1.6 | 1.6 | 0.00 | 0.00 | 0.00 | 99 | 1012.6 |
| 20260508102204 | -1 | 66 | 0.0 | 0.0 | 0.00 | 0.00 | 0.00 | 99 | 1012.8 |
| 20260508101205 | -1 | 90 | 0.0 | 1.6 | 0.00 | 0.00 | 0.00 | 99 | 1013.0 |
| 20260508100200 | 0 | 66 | 1.6 | 3.2 | 0.00 | 0.00 | 0.00 | 99 | 1012.9 |
| 20260508095159 | 0 | 70 | 0.0 | 3.2 | 0.00 | 0.00 | 0.00 | 99 | 1012.8 |
| 20260508094158 | 0 | 195 | 0.0 | 0.0 | 0.00 | 0.00 | 0.00 | 99 | 1012.9 |
| 20260508093153 | 0 | 83 | 0.0 | 0.0 | 0.00 | 0.00 | 0.00 | 99 | 1013.0 |
| 20260508092149 | 0 | 123 | 1.6 | 3.2 | 0.00 | 0.00 | 0.00 | 99 | 1013.0 |
| 20260508091149 | 0 | 77 | 0.0 | 0.0 | 0.00 | 0.00 | 0.00 | 98 | 1013.1 |
| 20260508090143 | 1 | 192 | 0.0 | 0.0 | 0.00 | 0.00 | 0.00 | 99 | 1013.0 |
| 20260508085143 | 0 | 192 | 0.0 | 0.0 | 0.00 | 0.00 | 0.00 | 98 | 1012.9 |
| 20260508084142 | 1 | 192 | 0.0 | 0.0 | 0.00 | 0.00 | 0.00 | 98 | 1013.2 |
| 20260508083137 | 1 | 180 | 0.0 | 3.2 | 0.00 | 0.00 | 0.00 | 98 | 1013.1 |
| 20260508082135 | 1 | 35 | 0.0 | 0.0 | 0.00 | 0.00 | 0.00 | 98 | 1013.0 |
| 20260508081135 | 0 | 35 | 0.0 | 0.0 | 0.00 | 0.00 | 0.00 | 97 | 1013.0 |
| 20260508080131 | 1 | 35 | 0.0 | 0.0 | 0.00 | 0.00 | 0.00 | 97 | 1012.9 |
| 20260508075130 | 1 | 15 | 0.0 | 0.0 | 0.00 | 0.00 | 0.00 | 97 | 1013.2 |
| 20260508074124 | 2 | 15 | 0.0 | 0.0 | 0.00 | 0.00 | 0.00 | 97 | 1013.2 |
| 20260508073119 | 1 | 15 | 0.0 | 0.0 | 0.00 | 0.00 | 0.00 | 96 | 1013.2 |
| 20260508072118 | 2 | 106 | 0.0 | 0.0 | 0.00 | 0.00 | 0.00 | 96 | 1013.2 |
| 20260508071113 | 2 | 66 | 0.0 | 0.0 | 0.00 | 0.00 | 0.00 | 95 | 1013.1 |
| 20260508070109 | 3 | 15 | 0.0 | 0.0 | 0.00 | 0.00 | 0.00 | 94 | 1013.2 |
| 20260508065109 | 3 | 194 | 0.0 | 0.0 | 0.00 | 0.00 | 0.00 | 94 | 1013.1 |